Regional Weather Roundup
Issued by NWS

Home | Current Version | Previous Version | Text Only | Print | Product List | Glossary Off
Versions: 1 2 3 4 5 6 7 8 9 10 11 12 13 14 15 16 17 18 19 20 21 22 23 24 25 26 27 28 29 30 31 32 33 34 35 36 37 38 39 40 41 42 43 44 45 46 47 48 49 50

000
ASUS43 KLSX 230407
RWRMO

WEATHER SUMMARY FOR MISSOURI
NATIONAL WEATHER SERVICE SPRINGFIELD MO
1100 PM CDT WED OCT 22 2014

NOTE: "FAIR" INDICATES FEW OR NO CLOUDS BELOW 12,000 FEET WITH NO
       SIGNIFICANT WEATHER AND/OR OBSTRUCTIONS TO VISIBILITY.
       CURRENT SKY AND/OR WEATHER CONDITIONS ARE NOT AVAILABLE FOR
       CHILLICOTHE AND FARMINGTON.

MOZ001>031-035>038-043-044-053-054-230500-
...NORTHERN AND WESTERN MISSOURI...

CITY           SKY/WX    TMP DP  RH WIND       PRES   REMARKS
KANSAS CTY INT MOCLDY    60  51  72 SE9       30.11S
KANSAS C DTWN  PTCLDY    65  50  58 S8        30.11S
LEE`S SUMMIT   PTCLDY    60  48  64 SE7       30.13S
ST JOSEPH      PTCLDY    62  50  64 S6        30.10S
CHILLICOTHE      N/A     57  45  64 SE6       30.16S
KIRKSVILLE     CLEAR     47  42  83 SE8       30.19S

$$
MOZ066>068-077>081-088>096-101>105-230500-
...SOUTHWEST MISSOURI...

CITY           SKY/WX    TMP DP  RH WIND       PRES   REMARKS
SPRINGFIELD    CLEAR     55  47  74 S9        30.17R
JOPLIN         CLEAR     60  51  72 SE8       30.15S

$$
MOZ032>034-039>042-045>050-055>058-069>072-230500-
...CENTRAL MISSOURI...

CITY           SKY/WX    TMP DP  RH WIND       PRES   REMARKS
COLUMBIA       CLEAR     51  42  71 SE8       30.20S
JEFFERSON CITY CLEAR     48  41  76 SE5       30.19S
ROLLA          CLEAR     46  39  76 SE9       30.19S
SEDALIA        PTCLDY    55  45  68 SE8       30.17S
WHITEMAN AFB   PTCLDY    55  46  73 SE6       30.14S
OSAGE BEACH    CLEAR     52  43  71 SE5       30.18F

$$
MOZ051-052-059>065-230500-
...EAST CENTRAL MISSOURI...

CITY           SKY/WX    TMP DP  RH WIND       PRES   REMARKS
ST LOUIS INTL  PTCLDY    49  40  71 E3        30.25R
SPIRIT OF STL  CLEAR     42  40  92 CALM      30.24R
ST CHARLES     CLEAR     46  44  93 CALM      30.24S

$$
MOZ072>076-082>087-097>100-106>115-230500-
...SOUTH CENTRAL AND SOUTHEAST MISSOURI...

CITY           SKY/WX    TMP DP  RH WIND       PRES   REMARKS
CAPE GIRARDEAU CLEAR     42  40  92 CALM      30.24S
FARMINGTON     CLEAR     41  39  93 CALM      30.26R
POPLAR BLUFF   CLEAR     45  41  86 N3        30.22S
WEST PLAINS    CLEAR     46  41  82 CALM      30.22F

$$



USA.gov is the U.S. government's official web portal to all federal, state and local government web resources and services.